カタログに戻る

STARLINK-36446

運用中通信VLEO
NORAD 67412·PAYLOAD·🇺🇸 United States

打ち上げ Jan 12, 2026 から Cape Canaveral Space Force Station

Loading…

次のパス (今後24時間)

TLE

最新Source: CelesTrak SupGP

元期: Sep 14, 2026, 22:35 UTC

1 67412C 26005J   26257.94145833  .00032354  00000+0  11718-2 0  2575
2 67412  43.0026 249.1755 0001283 263.8896 335.2756 15.27563185    11

AllMySatでSTARLINK-36446をリアルタイム追跡

Download on the App Store